Location: Allonne
(49.4086°N, 2.1143°E)
Time: 16:30:50
(UTC+00:00)

Cosmos 2322 - Visible Passes

Search period start: 30 September 2023 00:00
Search period end: 10 October 2023 00:00
Orbit: 839 x 855 km, 71.0° (Epoch: 29 September)

Date Brightness Start Highest point End Pass type
(mag) Time Alt. Az. Time Alt. Az. Time Alt. Az.
30 Sep 6.1 01:43:45 10° N 01:47:47 19° NE 01:51:48 10° E visible
30 Sep 3.9 03:27:16 10° NNW 03:33:00 74° ENE 03:38:40 10° SE visible
30 Sep 4.9 05:12:26 10° NW 05:16:33 21° W 05:20:40 10° SSW visible
30 Sep 3.7 18:23:35 10° SSW 18:29:15 68° ESE 18:34:58 10° NNE visible
30 Sep 5.7 20:09:04 10° WSW 20:13:57 28° NW 20:18:50 10° NNE visible
30 Sep 6.8 21:59:58 10° NNW 22:00:16 10° NNW 22:00:33 10° NNW visible
01 Oct 6.1 01:30:22 10° N 01:34:22 19° NE 01:38:22 10° E visible
01 Oct 3.9 03:13:52 10° NNW 03:19:36 72° ENE 03:25:16 10° SE visible
01 Oct 4.8 04:59:01 10° NW 05:03:11 21° W 05:07:20 10° SSW visible
01 Oct 3.7 18:10:13 10° SSW 18:15:52 67° ESE 18:21:34 10° NNE visible
01 Oct 5.7 19:55:39 10° WSW 20:00:32 28° NW 20:05:27 10° NNE visible
01 Oct 6.8 21:46:18 10° NNW 21:46:51 10° NNW 21:47:23 10° NNW visible
02 Oct 6.1 01:16:59 10° N 01:20:58 19° NE 01:24:54 10° E visible
02 Oct 3.9 03:00:29 10° NNW 03:06:13 71° ENE 03:11:52 10° SE visible
02 Oct 4.8 04:45:36 10° NW 04:49:49 22° W 04:54:00 10° SSW visible
02 Oct 3.8 17:56:50 10° SSW 18:02:29 66° ESE 18:08:10 10° NNE visible
02 Oct 5.7 19:42:12 10° WSW 19:47:08 29° NW 19:52:04 10° NNE visible
02 Oct 6.7 21:32:42 10° NNW 21:33:25 10° NNW 21:34:08 10° NNW visible
03 Oct 6.1 01:03:37 10° N 01:07:33 19° NE 01:11:27 10° E visible
03 Oct 3.9 02:47:06 10° NNW 02:52:50 70° ENE 02:58:28 10° SE visible
03 Oct 4.7 04:32:11 10° NW 04:36:26 22° W 04:40:40 10° SSW visible
03 Oct 5.6 19:28:47 10° WSW 19:33:44 29° NW 19:38:41 10° NNE visible
03 Oct 6.7 21:19:08 10° NNW 21:20:00 10° NNW 21:20:52 10° N visible
04 Oct 6.1 00:50:15 10° N 00:54:08 18° NE 00:55:09 18° NE visible
04 Oct 4.9 02:33:43 10° NNW 02:43:21 20° SE 02:45:05 10° SE visible
04 Oct 5.2 04:25:42 16° SW 04:25:42 16° SW 04:27:21 10° SSW visible
04 Oct 5.6 19:15:22 10° WSW 19:20:19 29° NW 19:25:19 10° NNE visible
04 Oct 6.7 21:05:35 10° NNW 21:06:35 10° NNW 21:07:33 10° N visible
05 Oct 6.2 00:36:52 10° N 00:39:30 17° NNE 00:39:30 17° NNE visible
05 Oct 5.9 02:20:19 10° NNW 02:21:19 15° NNW 02:21:19 15° NNW visible
05 Oct6.504:16:39SSW04:16:39SSW04:03:08NWvisible
05 Oct 5.6 19:01:55 10° WSW 19:06:55 30° NW 19:11:55 10° NNE visible
05 Oct 6.6 20:52:04 10° NNW 20:53:09 10° NNW 20:54:15 10° N visible
06 Oct 6.3 00:23:29 10° N 00:25:09 15° N 00:25:09 15° N visible
06 Oct 6.3 02:06:56 10° NNW 02:07:01 10° NNW 02:07:01 10° NNW visible
06 Oct 5.6 18:48:31 10° WSW 18:53:31 30° NW 18:58:32 10° NNE visible
06 Oct 6.6 20:38:33 10° NNW 20:39:44 11° NNW 20:40:55 10° N visible
07 Oct 6.4 00:10:07 10° N 00:11:13 13° N 00:11:13 13° N visible
07 Oct 5.5 18:35:05 10° WSW 18:40:06 31° NW 18:45:10 10° NNE visible
07 Oct 6.6 20:25:01 10° NW 20:26:19 11° NNW 20:27:36 10° N visible
07 Oct 6.5 23:56:45 10° N 23:57:28 12° N 23:57:28 12° N visible
08 Oct 5.5 18:21:39 10° WSW 18:26:42 31° NW 18:31:47 10° NNE visible
08 Oct 6.5 20:11:30 10° NW 20:12:53 11° NNW 20:14:16 10° N visible
08 Oct 6.6 23:43:22 10° N 23:43:51 11° N 23:43:51 11° N visible
09 Oct 5.5 18:08:14 10° WSW 18:13:18 32° NW 18:18:24 10° NNE visible
09 Oct 6.5 19:58:01 10° NW 19:59:29 11° NNW 20:00:56 10° N visible
09 Oct 6.6 23:30:00 10° N 23:30:19 11° N 23:30:19 11° N visible
